Wind_Speed
6 5 4 4 3 2 2 2 0 2 3 3 4 5 6 6 6 7 7 7 8 8 8 8 9 8 8 8 8 9 9 10 9 9 8 8 8 8 9 8 8 8 8 9
8 7 5 4 3 3 3 3 1 1 1 2 3 4 5 5 6 7 7 7 7 8 8 8 8 8 8 8 8 10 9 9 9 9 8 8 8 8 9 9 8 9 9 9
8 7 6 6 4 4 4 3 2 1 1 2 2 3 4 4 5 5 6 6 7 7 7 8 8 8 7 7 8 9 9 8 8 8 8 8 8 8 9 9 9 10 10 10
9 8 7 7 5 5 5 5 4 3 2 2 3 3 4 4 5 5 5 6 6 7 8 9 8 8 7 7 8 9 9 8 8 8 9 9 9 9 9 10 10 11 11 11
10 10 9 8 6 6 5 6 6 5 4 4 4 5 5 5 5 6 5 6 7 7 8 8 8 7 7 8 8 8 9 9 9 10 9 9 10 10 10 11 12 12 12 12
12 11 10 9 7 6 6 6 7 7 7 6 6 8 6 6 6 6 6 7 8 8 9 9 9 9 9 9 8 8 9 9 10 10 10 10 10 11 11 12 12 13 14 13
12 11 10 9 8 7 7 7 7 7 8 7 8 8 7 7 8 8 8 8 9 10 10 10 9 10 9 10 9 9 10 10 11 11 11 12 12 12 11 12 12 13 14 14
12 11 10 10 9 9 8 8 8 9 9 9 8 9 8 8 9 9 10 10 10 11 11 11 10 10 10 11 10 10 11 11 12 13 13 13 13 13 13 13 13 14 14 14
12 11 12 11 11 11 10 11 10 10 10 10 10 9 9 10 10 10 10 10 10 11 11 11 10 11 12 12 11 12 12 12 13 14 15 15 14 13 14 15 15 15 15 15
14 13 13 13 13 13 13 12 12 12 13 13 12 11 11 12 12 12 12 12 12 12 12 11 12 13 14 13 13 13 13 13 14 15 16 16 16 15 15 15 15 16 16 17
16 16 15 15 15 15 15 15 15 16 16 16 16 13 13 13 14 14 13 13 13 12 12 12 13 14 14 14 14 14 14 14 15 16 17 18 17 17 16 16 16 17 17 18
18 18 18 17 17 17 17 17 17 17 18 18 18 15 15 15 15 14 14 14 13 12 12 12 13 14 14 15 15 15 15 15 16 17 17 18 18 17 17 17 17 18 19 19
21 20 20 19 19 19 19 18 18 18 19 19 19 16 16 16 16 16 16 16 15 14 13 13 14 14 15 15 15 15 15 16 16 17 18 18 18 18 18 18 19 19 20 20
22 23 22 21 20 20 20 19 19 20 21 21 20 19 17 17 17 17 17 17 16 15 15 15 14 15 16 16 16 17 17 18 18 19 19 19 19 19 19 20 20 20 21 21
25 25 23 22 21 21 22 21 20 21 21 22 21 20 18 18 18 18 19 19 18 17 17 17 17 17 17 17 18 18 19 20 19 20 21 21 20 20 21 21 22 22 23 23
27 26 25 24 24 24 24 23 23 22 23 22 21 20 19 19 19 19 19 19 19 19 19 19 19 19 19 19 19 20 20 21 22 22 22 22 22 22 22 23 23 24 25 25
28 27 27 27 26 26 27 25 24 24 23 23 22 22 22 21 21 20 20 20 21 20 21 20 20 20 21 21 22 22 22 23 23 23 23 23 24 23 23 24 25 25 26 26
29 29 29 28 27 29 26 25 24 24 24 24 24 24 23 22 21 21 21 20 21 20 20 21 22 22 22 23 23 23 23 24 24 25 24 25 25 25 25 25 26 27 27 28
28 29 28 28 28 28 26 25 25 25 26 25 25 24 23 22 22 22 22 21 22 22 22 22 23 24 24 25 24 24 25 25 25 26 26 27 27 27 27 27 28 28 28 29
30 30 30 30 30 29 26 26 26 26 26 25 25 25 24 24 24 23 23 23 23 23 23 24 24 25 25 26 26 26 26 26 27 27 27 28 28 28 28 29 29 30 30 30
31 31 32 32 31 29 27 26 26 27 27 26 26 26 26 26 26 26 26 25 25 26 26 26 26 27 28 28 28 28 28 28 28 28 29 29 30 30 30 31 31 31 31 31
32 32 32 32 31 30 28 28 27 27 27 26 26 27 27 27 27 28 28 28 27 27 28 28 28 29 29 30 29 29 29 29 30 30 30 31 32 32 32 32 33 33 32 32
33 33 34 33 33 32 31 29 28 27 26 26 27 28 28 27 28 28 29 28 28 29 29 30 29 30 30 30 30 29 29 30 31 32 32 32 33 33 33 33 34 34 33 34
34 34 34 34 34 33 32 30 28 27 27 28 29 29 29 29 28 28 28 28 28 28 29 30 29 28 29 29 30 30 30 31 32 32 33 33 33 33 33 34 34 34 34 34
33 33 33 33 33 33 33 32 30 29 28 29 29 29 29 28 28 28 27 27 27 28 29 29 29 28 29 30 30 31 32 32 33 33 34 34 33 34 34 34 35 35 35 35
32 32 32 32 31 32 32 31 31 30 30 30 30 29 28 28 28 28 28 27 27 28 28 29 29 29 30 31 31 31 32 32 32 33 34 34 34 34 35 35 35 35 34 34
Wind_Direction
192 190 181 182 187 197 188 186 179 74 81 56 42 39 36 38 37 32 31 30 29 31 26 23 21 18 15 17 21 18 21 19 19 19 18 19 17 14 11 7 2 358 353 351
202 198 199 200 211 224 212 201 209 97 60 24 24 25 22 28 26 24 21 16 17 19 15 12 12 11 11 9 7 9 11 13 14 14 10 7 7 6 3 0 355 351 346 341
209 206 210 214 221 229 227 220 221 236 311 334 356 4 4 14 13 13 9 3 2 6 0 357 0 4 4 0 360 360 0 1 3 3 359 354 350 349 347 348 346 344 339 336
214 215 216 218 224 235 233 246 258 265 259 275 313 329 346 350 350 351 351 347 346 346 348 349 350 351 351 349 349 350 352 352 350 347 347 342 337 336 335 335 336 334 331 329
218 221 219 223 229 240 237 248 264 270 266 284 293 304 324 330 335 334 335 336 338 341 343 346 348 343 337 333 336 339 339 343 343 338 338 336 330 327 327 329 329 327 325 323
221 224 222 224 230 243 253 260 267 267 269 277 288 293 310 320 322 323 327 328 332 334 337 340 339 334 331 328 327 329 331 333 331 331 331 326 325 324 322 324 325 323 319 318
220 219 219 225 234 243 256 267 275 276 272 278 287 292 302 312 317 317 319 322 326 328 331 334 337 335 331 327 324 324 326 327 327 329 326 323 323 322 321 319 320 321 319 317
223 223 228 231 240 246 253 267 271 276 278 280 283 291 300 306 313 316 320 320 322 322 323 325 328 331 328 326 323 320 321 322 323 322 320 321 323 324 321 320 319 319 316 314
233 229 232 238 242 246 252 264 271 274 277 277 283 290 296 298 303 307 312 318 324 324 321 320 324 323 322 321 318 317 316 317 318 318 318 320 319 320 322 321 320 316 312 311
239 237 237 239 243 249 255 264 269 272 276 278 281 288 295 296 303 305 309 311 316 321 322 318 316 318 319 319 316 312 313 313 315 317 318 320 318 316 316 315 317 315 313 311
239 241 243 243 244 251 257 261 264 268 271 277 282 288 294 297 299 302 302 303 311 315 315 316 317 318 320 321 321 316 315 314 317 320 319 317 316 313 311 312 313 314 315 314
239 244 245 247 249 251 256 259 262 265 268 273 280 285 292 296 297 298 299 301 304 308 311 311 314 316 318 319 317 315 314 313 314 315 317 318 315 312 310 312 313 313 312 311
243 247 249 248 250 254 257 258 262 265 268 272 278 285 288 293 296 296 296 297 300 304 304 303 308 311 311 311 310 311 311 310 310 311 310 312 313 310 309 309 310 310 310 309
246 250 252 253 254 257 259 260 265 269 272 275 280 284 285 290 292 293 292 292 297 301 303 301 303 307 306 304 304 306 308 309 310 311 310 309 308 308 308 308 309 308 307 306
248 252 253 254 254 256 259 261 266 271 275 278 283 283 284 288 289 291 290 289 293 297 300 303 303 303 303 302 303 303 304 306 309 310 308 307 306 305 304 305 305 305 305 304
249 252 253 254 254 257 258 260 265 270 274 278 280 281 283 283 287 291 290 288 290 292 294 297 298 298 301 302 302 301 302 305 306 307 307 306 305 305 304 304 303 304 304 303
250 252 255 257 258 260 261 263 265 268 271 274 278 281 282 282 286 289 288 287 288 290 291 291 292 294 297 299 299 300 300 302 303 304 305 306 306 305 305 305 305 304 304 303
250 251 254 258 260 261 264 264 264 266 269 271 275 279 283 284 282 283 284 286 287 285 285 288 290 292 294 295 296 298 299 301 301 302 303 305 305 304 305 306 306 304 303 302
251 253 256 259 260 262 263 266 266 266 268 269 273 276 279 280 280 281 284 285 285 285 285 286 288 289 292 293 294 295 298 298 299 301 302 303 303 303 306 306 304 303 302 301
251 253 256 258 261 263 264 266 266 267 268 269 272 274 275 276 278 279 281 283 282 282 284 285 286 288 290 292 295 297 298 299 299 299 300 301 301 302 304 305 304 303 303 302
253 254 256 258 260 263 264 267 269 271 274 271 271 273 275 276 278 279 280 281 282 282 283 284 285 287 289 291 294 296 296 297 297 298 299 299 301 302 303 302 301 301 302 301
253 254 256 259 261 263 263 265 269 272 272 270 272 275 276 277 277 278 279 281 282 283 284 285 285 286 287 289 293 295 295 296 296 297 298 299 300 301 301 301 301 301 301 300
252 254 256 259 262 264 264 266 269 270 270 271 274 276 278 277 278 279 279 280 281 282 284 285 284 285 287 290 293 293 294 294 294 295 297 298 298 298 299 299 299 301 300 300
253 255 257 258 261 262 263 265 268 270 270 272 275 277 278 278 279 280 281 280 280 281 283 285 285 286 289 292 293 292 292 292 293 294 295 296 296 297 297 297 297 299 299 298
253 256 258 259 261 262 262 263 265 268 269 272 275 278 279 278 280 280 280 281 282 283 283 285 288 288 289 290 291 294 295 294 294 295 296 295 295 295 296 296 297 298 298 299
253 255 256 258 259 261 261 261 264 268 270 272 275 279 280 279 278 280 280 281 284 285 287 288 289 289 291 292 293 295 296 297 297 297 297 296 296 297 297 297 298 298 298 298
Height
5912 5913 5913 5914 5915 5915 5915 5915 5915 5915 5914 5914 5913 5912 5911 5910 5910 5909 5908 5907 5906 5905 5904 5902 5901 5900 5898 5897 5895 5894 5892 5891 5890 5888 5887 5886 5885 5884 5883 5882 5881 5879 5878 5877
5912 5913 5914 5914 5914 5915 5915 5915 5915 5915 5914 5914 5913 5913 5912 5911 5910 5909 5908 5907 5906 5905 5904 5903 5901 5900 5898 5897 5895 5894 5892 5891 5890 5889 5888 5887 5885 5884 5883 5882 5880 5879 5877 5876
5911 5913 5913 5913 5914 5914 5915 5915 5915 5915 5915 5914 5914 5913 5912 5911 5910 5910 5908 5907 5906 5905 5904 5902 5901 5899 5898 5897 5895 5894 5892 5891 5890 5889 5888 5886 5885 5884 5883 5881 5880 5878 5877 5875
5910 5911 5912 5912 5913 5914 5914 5915 5915 5915 5914 5914 5914 5913 5913 5911 5910 5909 5908 5907 5906 5904 5903 5901 5900 5899 5898 5896 5895 5893 5892 5891 5889 5888 5887 5886 5884 5883 5882 5880 5879 5877 5875 5874
5909 5910 5911 5912 5913 5913 5913 5914 5914 5914 5914 5914 5913 5913 5913 5911 5910 5909 5908 5907 5905 5904 5902 5901 5899 5898 5897 5896 5894 5893 5891 5890 5888 5887 5885 5884 5883 5882 5880 5879 5877 5875 5874 5872
5907 5908 5910 5911 5911 5912 5912 5912 5913 5913 5913 5913 5913 5912 5912 5910 5910 5909 5907 5906 5905 5903 5901 5900 5899 5897 5896 5894 5893 5891 5890 5889 5887 5885 5884 5883 5881 5880 5878 5877 5875 5873 5871 5870
5906 5907 5908 5909 5910 5911 5911 5912 5912 5911 5911 5912 5912 5911 5911 5910 5909 5908 5907 5905 5904 5902 5900 5899 5897 5896 5894 5893 5891 5890 5889 5887 5885 5883 5882 5881 5879 5877 5875 5874 5873 5871 5869 5867
5904 5906 5907 5907 5908 5909 5910 5910 5911 5911 5910 5911 5910 5910 5910 5909 5907 5906 5906 5904 5903 5901 5899 5897 5896 5895 5893 5891 5889 5888 5887 5885 5883 5882 5880 5878 5876 5875 5873 5871 5870 5868 5866 5864
5902 5904 5905 5905 5906 5907 5907 5908 5909 5909 5908 5909 5908 5909 5908 5907 5906 5905 5904 5902 5901 5899 5897 5896 5894 5893 5891 5889 5887 5885 5884 5882 5881 5879 5877 5875 5874 5872 5870 5868 5866 5865 5863 5861
5899 5901 5903 5903 5904 5905 5905 5906 5907 5906 5906 5906 5906 5906 5906 5905 5904 5903 5902 5900 5899 5897 5896 5894 5893 5891 5889 5886 5884 5883 5881 5880 5878 5876 5875 5873 5871 5869 5867 5865 5863 5861 5859 5857
5896 5898 5900 5900 5901 5902 5903 5903 5903 5903 5903 5903 5903 5906 5904 5902 5901 5900 5899 5898 5897 5895 5894 5892 5890 5888 5886 5884 5882 5880 5879 5877 5876 5873 5872 5869 5867 5865 5864 5862 5860 5858 5856 5854
5893 5894 5895 5897 5898 5898 5899 5899 5900 5901 5900 5900 5899 5903 5900 5899 5898 5897 5896 5895 5894 5893 5891 5889 5888 5886 5884 5882 5880 5878 5876 5874 5873 5870 5868 5866 5864 5862 5860 5858 5856 5854 5852 5850
5889 5890 5891 5893 5895 5896 5895 5896 5896 5896 5896 5896 5896 5899 5897 5896 5895 5894 5893 5891 5890 5889 5888 5887 5885 5883 5881 5879 5877 5875 5873 5871 5869 5867 5865 5862 5860 5858 5856 5854 5852 5850 5848 5845
5884 5886 5888 5889 5890 5891 5891 5892 5892 5892 5892 5892 5892 5893 5893 5892 5891 5890 5889 5887 5886 5885 5884 5883 5881 5879 5878 5876 5874 5872 5870 5868 5865 5863 5861 5859 5856 5854 5852 5850 5848 5846 5843 5841
5878 5880 5882 5883 5885 5886 5886 5887 5887 5887 5887 5887 5888 5887 5888 5887 5887 5886 5884 5883 5882 5881 5880 5878 5877 5875 5874 5872 5870 5868 5866 5863 5861 5859 5857 5855 5852 5850 5848 5846 5843 5841 5838 5835
5873 5875 5876 5878 5879 5880 5881 5882 5882 5883 5882 5883 5883 5883 5883 5882 5881 5881 5880 5879 5877 5876 5874 5873 5872 5871 5869 5867 5865 5863 5861 5859 5856 5854 5852 5850 5847 5845 5842 5840 5837 5835 5832 5829
5867 5869 5871 5872 5873 5874 5874 5876 5877 5877 5877 5878 5878 5879 5877 5877 5876 5876 5874 5873 5872 5871 5869 5868 5867 5865 5864 5862 5860 5858 5856 5854 5851 5849 5846 5844 5841 5839 5837 5834 5831 5828 5825 5822
5862 5863 5864 5865 5867 5867 5871 5870 5871 5871 5872 5872 5872 5872 5871 5871 5871 5870 5869 5868 5867 5865 5863 5862 5861 5860 5858 5856 5854 5852 5850 5848 5845 5843 5840 5838 5835 5833 5830 5827 5825 5822 5819 5816
5855 5857 5858 5859 5859 5861 5863 5864 5864 5865 5865 5866 5866 5865 5865 5865 5865 5864 5863 5862 5861 5859 5858 5856 5855 5853 5852 5850 5847 5845 5843 5841 5839 5836 5834 5831 5829 5826 5823 5821 5818 5815 5811 5808
5849 5850 5852 5852 5852 5854 5858 5857 5857 5858 5858 5859 5859 5858 5858 5858 5858 5859 5857 5856 5854 5853 5851 5850 5848 5846 5845 5843 5840 5838 5836 5834 5832 5829 5827 5824 5822 5819 5816 5813 5810 5807 5803 5800
5841 5842 5844 5845 5845 5847 5850 5850 5850 5852 5852 5852 5852 5851 5851 5851 5851 5851 5850 5849 5847 5846 5844 5842 5841 5839 5837 5835 5833 5831 5829 5826 5824 5822 5819 5817 5814 5811 5808 5805 5802 5799 5795 5791
5833 5834 5835 5837 5838 5842 5842 5842 5844 5844 5843 5843 5844 5844 5844 5844 5843 5843 5842 5841 5839 5838 5836 5834 5833 5831 5829 5827 5825 5823 5821 5818 5816 5814 5812 5809 5806 5803 5800 5797 5793 5790 5786 5783
5824 5826 5827 5829 5832 5833 5833 5834 5835 5836 5836 5836 5836 5836 5836 5836 5835 5834 5834 5832 5831 5830 5828 5826 5824 5822 5820 5818 5816 5814 5812 5810 5808 5806 5803 5800 5797 5794 5791 5788 5784 5781 5777 5774
5816 5817 5818 5820 5822 5823 5825 5826 5827 5828 5828 5828 5829 5828 5828 5828 5827 5826 5825 5824 5823 5821 5819 5817 5815 5812 5811 5809 5808 5806 5804 5802 5799 5797 5794 5791 5788 5785 5782 5779 5775 5772 5768 5765
5807 5808 5809 5811 5813 5814 5815 5817 5818 5820 5820 5821 5821 5821 5820 5819 5819 5818 5817 5816 5814 5813 5811 5809 5807 5805 5803 5801 5799 5797 5794 5792 5790 5788 5785 5782 5779 5775 5772 5769 5765 5762 5759 5755
5799 5800 5801 5803 5804 5805 5806 5807 5809 5811 5812 5813 5813 5813 5812 5811 5810 5809 5808 5807 5806 5804 5802 5801 5799 5797 5795 5793 5791 5788 5786 5783 5781 5778 5775 5772 5769 5766 5763 5759 5756 5752 5749 5746